Weather History for Fayetteville, AR

Change the Weather History Date:

Sunday, December 9, 2012

  Actual Average Record
Temperature  
Mean Temperature 45 °F 38 °F  
Max Temperature 59 °F 49 °F 68 °F (1970)
Min Temperature 30 °F 28 °F 2 °F (2005)
Degree Days  
Heating Degree Days 20 26  
Month to date heating degree days 101 227  
Since 1 July heating degree days 914 1056  
Moisture  
Dew Point 46 °F    
Average Humidity 85    
Maximum Humidity 100    
Minimum Humidity 69    
Precipitation  
Precipitation 0.61 in 0.11 in 1.41 in (1999)
Month to date precipitation 1.15 1.06  
Year to date precipitation 29.06 46.33  
Sea Level Pressure  
Sea Level Pressure 29.83 in    
Wind  
Wind Speed 8 mph (NW)    
Max Wind Speed 39 mph    
Max Gust Speed 116 mph    
Visibility 7 miles    
Events Rain , Thunderstorm    
T = Trace of Precipitation, MM = Missing Value Source: NWS Daily Summary

Daily Weather History Graph

Daily Weather History Graph

Search for Another Location

Airport:

Trip Planner

Search our weather history database for the weather conditions in past years. The results will help you decide how hot, cold, wet, or windy it might be!

Date:

Astronomy

Dec. 09, 2012 Rise Set
Actual Time 7:16 AM CST 5:02 PM CST
Civil Twilight 6:47 AM CST 5:30 PM CST
Nautical Twilight 6:15 AM CST 6:02 PM CST
Astronomical Twilight 5:44 AM CST 6:34 PM CST
Moon 2:55 AM CST (12/9) 2:05 PM CST (12/9)
Length of Visible Light 10h 43m
Length of Day
9h 46m
Waning Crescent, 18% of the Moon is Illuminated
Dec 9
Waning Crescent
Dec 13
New
Dec 19
First Quarter
Dec 28
Full
Jan 4
Last Quarter

Hourly Weather History & Observations

Time (CST) Temp. Windchill Dew Point Humidity Pressure Visibility Wind Dir Wind Speed Gust Speed Precip Events Conditions
12:53 AM 45.0 °F 42.6 °F 44.1 °F 97% 29.80 in 5.0 mi NW 4.6 mph - N/A   Clear
1:53 AM 45.0 °F - 45.0 °F 100% 29.79 in 4.0 mi Calm Calm - N/A   Clear
2:34 AM 46.4 °F - 46.4 °F 100% 29.79 in 5.0 mi Calm Calm - N/A   Mostly Cloudy
2:53 AM 48.9 °F - 48.0 °F 97% 29.78 in 5.0 mi Calm Calm - N/A   Overcast
3:53 AM 50.0 °F - 48.9 °F 96% 29.76 in 6.0 mi North - - N/A   Overcast
4:53 AM 51.1 °F - 50.0 °F 96% 29.75 in 6.0 mi Calm Calm - 0.02 in   Overcast
5:02 AM 51.8 °F - 50.0 °F 94% 29.75 in 6.0 mi Calm Calm - 0.00 in Rain , Thunderstorm Light Thunderstorms and Rain
5:14 AM 51.8 °F - 51.8 °F 100% 29.77 in 1.8 mi WNW 13.8 mph - 0.14 in Rain , Thunderstorm Heavy Thunderstorms and Rain
5:31 AM 55.4 °F - 53.6 °F 94% 29.76 in 2.5 mi West 5.8 mph 24.2 mph 0.54 in Rain , Thunderstorm Heavy Thunderstorms and Rain
5:43 AM 53.6 °F - 53.6 °F 100% 29.76 in 5.0 mi South 8.1 mph - 0.57 in Rain , Thunderstorm Light Thunderstorms and Rain
5:53 AM 52.0 °F - 52.0 °F 100% 29.75 in 10.0 mi South 5.8 mph - 0.57 in Rain , Thunderstorm Light Rain
5:57 AM 53.6 °F - 53.6 °F 100% 29.76 in 10.0 mi South 3.5 mph - 0.00 in Rain Light Rain
6:53 AM 54.0 °F - 53.1 °F 97% 29.76 in 7.0 mi Calm Calm - 0.00 in   Overcast
7:53 AM 55.0 °F - 54.0 °F 96% 29.77 in 5.0 mi Calm Calm - 0.01 in Rain Light Rain
8:53 AM 59.0 °F - 57.0 °F 93% 29.78 in 4.0 mi Variable 4.6 mph - 0.00 in   Overcast
9:53 AM 55.9 °F - 54.0 °F 93% 29.80 in 4.0 mi NW 5.8 mph - N/A   Overcast
10:35 AM 53.6 °F - 53.6 °F 100% 29.82 in 3.0 mi NW 11.5 mph - N/A   Overcast
10:53 AM 54.0 °F - 53.1 °F 97% 29.81 in 3.0 mi NW 8.1 mph - N/A   Overcast
11:53 AM 52.0 °F - 50.0 °F 93% 29.82 in 3.0 mi NNW 10.4 mph - 0.01 in   Overcast
12:53 PM 50.0 °F - 46.9 °F 89% 29.83 in 4.0 mi NNW 10.4 mph - N/A   Overcast
1:53 PM 48.9 °F - 45.0 °F 86% 29.84 in 6.0 mi NNW 11.5 mph - N/A   Overcast
2:53 PM 48.0 °F - 44.1 °F 86% 29.86 in 9.0 mi NNW 12.7 mph 17.3 mph N/A   Overcast
3:53 PM 46.4 °F 40.7 °F 42.8 °F 87% 29.88 in 9.0 mi NNW 12.7 mph - N/A   Overcast
4:53 PM 46.0 °F 43.9 °F 42.1 °F 86% 29.90 in 10.0 mi NNW 4.6 mph - N/A   Overcast
5:53 PM 46.0 °F 41.4 °F 39.9 °F 79% 29.92 in 10.0 mi North 9.2 mph - N/A   Overcast
6:53 PM 45.0 °F 37.9 °F 39.0 °F 80% 29.93 in 10.0 mi NW 16.1 mph 19.6 mph N/A   Overcast
7:53 PM 44.1 °F 39.0 °F 37.0 °F 76% 29.95 in 10.0 mi NNW 9.2 mph 20.7 mph N/A   Overcast
8:53 PM 41.0 °F 33.9 °F 32.0 °F 70% 29.96 in 10.0 mi NNW 12.7 mph 23.0 mph N/A   Overcast
9:53 PM 37.0 °F 28.5 °F 28.0 °F 70% 29.99 in 10.0 mi NNW 13.8 mph 20.7 mph N/A   Scattered Clouds
10:53 PM 33.1 °F 23.9 °F 24.1 °F 70% 30.01 in 10.0 mi NNW 12.7 mph 20.7 mph N/A   Clear
11:53 PM 30.0 °F 20.5 °F 21.0 °F 69% 30.03 in 10.0 mi NW 11.5 mph - N/A   Clear